Powrót do katalogu

DELTA 1 DEB

AktywnyPO
NORAD 19365·DEBRIS·🇺🇸 United States

Wystrzelony Jan 22, 1975 z Vandenberg Space Force Base

Loading…

Następne Przeloty (najbliższe 24 godziny)

TLE

ŚwieżeSource: Space-Track

Epoka: Sep 14, 2026, 06:15 UTC

1 19365U 75004HQ  26257.26047160  .00001000  00000-0  33203-3 0  9993
2 19365  97.7016 184.1159 0133062  69.3370 292.2026 14.34674565992488

Śledź DELTA 1 DEB w czasie rzeczywistym z AllMySat

Download on the App Store